EW7186 Weather Reports


Display with metric or nautical units.
time (UTC)temp
F
wind
direction
speed
MPH
gust
MPH
rain 1hr
in
rain 24hr
in
rain mn
in
humidity
%
barometer
mb
20260902053059 80 0 0.0 1.0 0.00 0.00 0.00 80 1017.8
20260902051558 81 0 0.0 2.0 0.00 0.00 0.00 79 1017.7
20260902050114 81 217 1.0 5.0 0.00 0.00 0.00 78 1017.5
20260902044604 81 193 0.0 2.0 0.00 0.00 0.00 79 1017.5
20260902043114 81 191 1.0 2.0 0.00 0.00 0.00 79 1017.4
20260902041602 81 0 0.0 3.0 0.00 0.00 0.00 80 1017.3
20260902040059 81 0 0.0 1.0 0.00 0.00 0.00 80 1017.4
20260902034601 82 191 1.0 2.0 0.00 0.00 0.00 80 1017.4
20260902033100 82 0 0.0 2.0 0.00 0.00 0.00 80 1017.3
20260902031559 81 0 0.0 1.0 0.00 0.00 0.00 82 1017.4
20260902030107 81 0 0.0 1.0 0.00 0.00 0.00 84 1017.3
20260902024604 82 0 0.0 0.0 0.00 0.00 0.00 84 1017.3
20260902023116 82 0 0.0 0.0 0.00 0.00 0.00 83 1017.3
20260902021559 83 0 0.0 0.0 0.00 0.00 0.00 82 1017.3
20260902020105 83 0 0.0 1.0 0.00 0.00 0.00 82 1017.1
20260902014601 83 0 0.0 0.0 0.00 0.00 0.00 81 1017.1
20260902013059 84 0 0.0 0.0 0.00 0.00 0.00 79 1017.0
20260902011601 85 0 0.0 0.0 0.00 0.00 0.00 79 1016.7
20260902010120 85 0 0.0 0.0 0.00 0.00 0.00 74 1016.7
20260902004603 85 0 0.0 0.0 0.00 0.00 0.00 70 1016.5
20260902003103 86 0 0.0 0.0 0.00 0.00 0.00 66 1016.4
20260902001557 87 0 0.0 0.0 0.00 0.00 0.00 65 1016.4
20260902000105 88 0 0.0 0.0 0.00 0.00 0.00 65 1016.5
20260901234559 89 0 0.0 0.0 0.00 0.00 0.00 67 1016.6
20260901233104 90 0 0.0 0.0 0.00 0.00 0.00 66 1016.5
20260901231607 90 0 0.0 0.0 0.00 0.00 0.00 56 1016.5
20260901230104 91 0 0.0 0.0 0.00 0.00 0.00 54 1016.6
20260901224601 91 0 0.0 0.0 0.00 0.00 0.00 56 1016.8
20260901223058 92 0 0.0 0.0 0.00 0.00 0.00 56 1016.8
20260901221629 92 0 0.0 2.0 0.00 0.00 0.00 55 1016.8
20260901220112 92 0 2.0 4.0 0.00 0.00 0.00 56 1016.8
20260901214559 92 70 2.0 3.0 0.00 0.00 0.00 57 1016.8
20260901213110 92 62 2.0 3.0 0.00 0.00 0.00 56 1016.7
20260901211609 92 0 0.0 3.0 0.00 0.00 0.00 54 1016.9
20260901210104 92 0 0.0 1.0 0.00 0.00 0.00 57 1016.8
20260901204558 91 102 0.0 3.0 0.00 0.00 0.00 56 1017.0
20260901203102 92 0 0.0 0.0 0.00 0.00 0.00 53 1017.1
20260901201602 91 0 0.0 0.0 0.00 0.00 0.00 53 1017.2
20260901200107 91 0 0.0 2.0 0.00 0.00 0.00 56 1017.4
20260901194605 91 0 0.0 3.0 0.00 0.00 0.00 55 1017.4
20260901193105 91 68 2.0 3.0 0.00 0.00 0.00 55 1017.5
20260901191611 90 60 3.0 4.0 0.00 0.00 0.00 56 1017.6
20260901190128 90 72 3.0 4.0 0.00 0.00 0.00 59 1017.8
20260901184611 90 58 3.0 4.0 0.00 0.00 0.00 60 1018.0
20260901183056 90 61 3.0 5.0 0.00 0.00 0.00 59 1017.9
20260901181611 90 58 2.0 4.0 0.00 0.00 0.00 60 1018.2
20260901180108 89 64 3.0 5.0 0.00 0.00 0.00 61 1018.4
20260901174605 89 61 4.0 5.0 0.00 0.00 0.00 61 1018.4
20260901173103 89 65 3.0 4.0 0.00 0.00 0.00 62 1018.6
20260901171600 89 65 3.0 4.0 0.00 0.00 0.00 61 1018.8
20260901170159 89 70 1.0 4.0 0.00 0.00 0.00 65 1019.0
20260901164602 88 0 1.0 5.0 0.00 0.00 0.00 65 1019.2
20260901163103 88 70 0.0 0.0 0.00 0.00 0.00 65 1019.3
20260901161615 87 0 1.0 4.0 0.00 0.00 0.00 69 1019.5
20260901160105 86 75 2.0 4.0 0.00 0.00 0.00 72 1019.6
20260901154612 86 48 2.0 4.0 0.00 0.00 0.00 70 1019.8
20260901153125 86 0 1.0 4.0 0.00 0.00 0.00 71 1019.9
20260901151559 85 342 2.0 4.0 0.00 0.00 0.00 73 1019.8
20260901150105 85 260 1.0 3.0 0.00 0.00 0.00 76 1019.9
20260901144604 84 316 2.0 5.0 0.00 0.00 0.00 78 1020.0
20260901143103 83 321 0.0 3.0 0.00 0.00 0.00 79 1019.8
20260901141606 82 330 2.0 3.0 0.00 0.00 0.00 81 1019.9
20260901140100 82 334 3.0 4.0 0.00 0.00 0.00 82 1019.8
20260901134555 81 295 2.0 4.0 0.00 0.00 0.00 83 1019.6
20260901133106 80 306 3.0 5.0 0.00 0.00 0.00 86 1019.7
20260901131625 79 2 0.0 3.0 0.00 0.00 0.00 87 1019.6
20260901130105 78 0 0.0 3.0 0.00 0.00 0.00 88 1019.6
20260901124603 78 0 0.0 0.0 0.00 0.00 0.00 89 1019.5
20260901123104 77 0 0.0 0.0 0.00 0.00 0.00 90 1019.6
20260901121607 76 0 0.0 1.0 0.00 0.00 0.00 90 1019.3
20260901120100 75 0 0.0 0.0 0.00 0.00 0.00 91 1019.4
20260901114604 75 0 0.0 0.0 0.00 0.00 0.00 91 1019.5
20260901113110 74 0 0.0 0.0 0.00 0.00 0.00 91 1019.2
20260901111610 74 0 0.0 0.0 0.00 0.00 0.00 91 1018.8
20260901110111 74 0 0.0 0.0 0.00 0.00 0.00 91 1018.7
20260901104608 74 0 0.0 0.0 0.00 0.00 0.00 91 1018.6
20260901103105 74 0 0.0 1.0 0.00 0.00 0.00 91 1018.5
20260901101609 74 0 0.0 0.0 0.00 0.00 0.00 91 1018.6
20260901100111 74 0 0.0 0.0 0.00 0.00 0.00 91 1018.4
20260901094607 74 0 0.0 0.0 0.00 0.00 0.00 91 1018.2
20260901093103 74 0 0.0 0.0 0.00 0.00 0.00 91 1018.3
20260901091555 75 0 0.0 0.0 0.00 0.00 0.00 91 1018.3
20260901090104 75 0 0.0 0.0 0.00 0.00 0.00 91 1018.2
20260901084609 75 0 0.0 0.0 0.00 0.00 0.00 90 1018.3
20260901083100 75 0 0.0 0.0 0.00 0.00 0.00 90 1018.2
20260901081618 75 0 0.0 0.0 0.00 0.00 0.00 90 1018.2
20260901080100 76 0 0.0 0.0 0.00 0.00 0.00 89 1018.2
20260901074602 76 0 0.0 0.0 0.00 0.00 0.00 89 1018.3
20260901073059 76 0 0.0 0.0 0.00 0.00 0.00 89 1018.5
20260901071602 77 0 0.0 0.0 0.00 0.00 0.00 88 1018.4
20260901070058 77 219 1.0 2.0 0.00 0.00 0.00 87 1018.4
20260901064603 78 235 1.0 3.0 0.00 0.00 0.00 87 1018.5
20260901063103 78 229 2.0 3.0 0.00 0.00 0.00 87 1018.7
20260901061614 78 0 1.0 3.0 0.00 0.00 0.00 87 1018.6
20260901060104 78 226 1.0 2.0 0.00 0.00 0.00 86 1018.7
20260901054614 78 0 0.0 0.0 0.00 0.00 0.00 86 1018.7